Wetterdaten am Flugplatz MSG Übersee

alte Datensätze gelöscht
118 aktuelle Wetterdateneinträge gefunden

Datum/Uhrzeit   Windrichtung/Grad    Geschw./kmh    Temp./C°    Luftdruck/mbar    Spannung/Volt   
2026-05-09 00:08 S/186 1 14 1020 12,30
2026-05-09 00:18 S/186 0 13 1020 12,35
2026-05-09 00:29 S/186 3 13 1020 12,36
2026-05-09 00:39 S/187 2 13 1020 12,27
2026-05-09 00:49 S/187 1 13 1020 12,32
2026-05-09 00:59 S/187 2 13 1020 12,35
2026-05-09 01:09 S/187 2 13 1020 12,27
2026-05-09 01:19 S/187 4 13 1020 12,30
2026-05-09 01:29 S/187 2 12 1020 12,27
2026-05-09 01:39 S/187 1 12 1020 12,30
2026-05-09 01:49 S/187 3 12 1020 12,26
2026-05-09 01:59 S/187 3 12 1019 12,30
2026-05-09 02:09 S/187 3 12 1019 12,26
2026-05-09 02:19 S/187 1 12 1019 12,30
2026-05-09 02:29 S/187 2 12 1019 12,26
2026-05-09 02:39 S/187 1 12 1019 12,30
2026-05-09 02:49 S/187 0 11 1019 12,26
2026-05-09 02:59 S/187 2 11 1019 12,32
2026-05-09 03:09 S/189 3 11 1019 12,24
2026-05-09 03:20 S/196 2 11 1019 12,29
2026-05-09 03:30 S/198 2 11 1019 12,24
2026-05-09 03:40 S/198 1 11 1019 12,24
2026-05-09 03:50 S/198 1 11 1019 12,24
2026-05-09 04:00 NW/308 1 11 1019 12,23
2026-05-09 04:10 NW/319 4 11 1019 12,23
2026-05-09 04:20 NW/320 1 10 1019 12,23
2026-05-09 04:30 NW/303 2 10 1019 12,23
2026-05-09 04:40 SW/205 1 10 1019 12,23
2026-05-09 04:50 SW/230 2 10 1019 12,21
2026-05-09 05:00 SW/227 3 10 1019 12,23
2026-05-09 05:10 SW/245 2 10 1019 12,21
2026-05-09 05:20 W/249 1 9 1019 12,21
2026-05-09 05:30 W/250 0 9 1020 12,21
2026-05-09 05:40 W/250 1 9 1020 12,20
2026-05-09 05:50 W/250 2 9 1020 12,20
2026-05-09 06:01 W/250 1 9 1020 12,20
2026-05-09 06:11 W/250 2 9 1020 12,18
2026-05-09 06:21 W/250 1 9 1020 12,18
2026-05-09 06:31 W/250 2 9 1020 12,20
2026-05-09 06:41 W/250 0 9 1020 12,20
2026-05-09 06:51 W/250 1 9 1020 12,01
2026-05-09 07:01 W/250 2 10 1020 12,20
2026-05-09 07:11 W/250 4 10 1020 12,26
2026-05-09 07:21 W/250 3 10 1020 12,26
2026-05-09 07:31 SW/223 8 11 1020 12,29
2026-05-09 07:41 S/200 3 11 1021 12,33
2026-05-09 07:51 NW/305 7 12 1021 12,29
2026-05-09 08:01 NW/325 6 12 1021 12,26
2026-05-09 08:11 NW/329 6 12 1021 12,24
2026-05-09 08:21 NW/316 6 13 1021 12,27
2026-05-09 08:32 NW/303 3 13 1021 12,26
2026-05-09 08:42 NW/305 4 13 1021 12,27
2026-05-09 08:52 NW/311 2 13 1021 12,20
2026-05-09 09:02 NW/313 1 13 1021 12,24
2026-05-09 09:12 NW/295 2 13 1021 12,29
2026-05-09 09:22 S/175 5 13 1022 12,24
2026-05-09 09:32 SO/154 5 13 1022 12,26
2026-05-09 09:42 SO/152 5 13 1021 12,30
2026-05-09 09:52 SO/149 8 14 1021 12,26
2026-05-09 10:02 S/173 20 14 1021 12,29
2026-05-09 10:12 S/186 26 14 1021 12,33
2026-05-09 10:22 S/184 26 14 1021 12,36
2026-05-09 10:32 S/176 25 14 1021 12,26
2026-05-09 10:42 S/170 23 14 1021 12,27
2026-05-09 10:52 SO/140 11 14 1021 12,38
2026-05-09 11:02 SO/150 9 14 1021 12,42
2026-05-09 11:13 SO/132 6 14 1020 12,38
2026-05-09 11:23 S/186 11 14 1021 12,52
2026-05-09 11:33 S/173 9 15 1021 12,57
2026-05-09 11:43 S/181 12 15 1021 12,52
2026-05-09 11:53 S/187 4 15 1021 12,58
2026-05-09 12:03 NW/315 12 15 1021 12,68
2026-05-09 12:13 N/356 14 16 1021 12,76
2026-05-09 12:23 N/20 10 17 1021 12,83
2026-05-09 12:33 N/14 11 17 1021 12,77
2026-05-09 12:43 N/17 12 18 1021 12,77
2026-05-09 12:53 N/360 12 18 1021 12,64
2026-05-09 13:03 NO/25 9 19 1020 12,68
2026-05-09 13:13 O/69 10 19 1020 12,67
2026-05-09 13:23 O/93 8 20 1020 12,68
2026-05-09 13:34 O/111 8 20 1020 12,70
2026-05-09 13:44 O/89 15 21 1020 12,70
2026-05-09 13:54 O/84 13 21 1020 12,38
2026-05-09 14:04 O/81 17 21 1020 12,57
2026-05-09 14:14 O/73 14 22 1020 12,61
2026-05-09 14:24 O/80 17 22 1019 12,61
2026-05-09 14:34 O/95 12 22 1020 12,65
2026-05-09 14:44 O/83 17 22 1019 12,67
2026-05-09 14:54 O/85 16 22 1019 12,68
2026-05-09 15:04 O/77 18 22 1019 12,80
2026-05-09 15:14 NO/66 15 23 1019 12,38
2026-05-09 15:24 O/83 11 23 1019 12,54
2026-05-09 15:34 O/78 15 23 1019 12,55
2026-05-09 15:44 NO/29 18 23 1019 12,58
2026-05-09 15:55 NO/48 17 23 1019 12,60
2026-05-09 16:05 NO/27 12 23 1019 12,62
2026-05-09 16:15 O/82 11 23 1019 12,64
2026-05-09 16:25 O/90 8 23 1019 12,67
2026-05-09 16:35 O/92 12 23 1019 12,68
2026-05-09 16:45 NO/67 10 23 1019 12,32
2026-05-09 16:55 NO/66 10 23 1019 12,48
2026-05-09 17:05 NO/67 14 23 1019 12,51
2026-05-09 17:15 NO/64 14 23 1019 12,54
2026-05-09 17:25 NO/64 11 23 1019 12,57
2026-05-09 17:35 NO/52 13 23 1019 12,58
2026-05-09 17:45 O/71 20 23 1018 12,61
2026-05-09 17:55 NO/62 19 23 1018 12,62
2026-05-09 18:05 NO/66 20 23 1018 12,64
2026-05-09 18:16 O/74 15 23 1018 12,65
2026-05-09 18:26 O/80 17 23 1018 12,68
2026-05-09 18:36 O/82 20 22 1018 12,29
2026-05-09 18:46 O/76 19 22 1018 12,43
2026-05-09 18:56 O/77 17 22 1018 12,48
2026-05-09 19:06 O/70 19 22 1018 12,51
2026-05-09 19:16 O/68 19 22 1018 12,54
2026-05-09 19:26 O/74 18 21 1018 12,57
2026-05-09 19:36 O/77 15 21 1018 12,60
2026-05-09 19:46 O/70 17 21 1018 12,60